Sioux Falls, SD

10:12 PM CDT on October 18, 2019 (GMT -0500)
Foss

Weather History for KFSD - August, 2019

Change the Weather History Date:

Wednesday, August 21, 2019

  Actual Average Record
Temperature  
Mean Temperature 68 °F 70 °F  
Max Temperature 77 °F 81 °F 98 °F (1959)
Min Temperature 59 °F 59 °F 40 °F (2004)
Degree Days  
Heating Degree Days 0 1  
Month to date heating degree days 0 8  
Since 1 June heating degree days 20 67  
Since 1 July heating degree days 0 16  
Cooling Degree Days 3 6  
Month to date cooling degree days 161 148  
Year to date cooling degree days 689 575  
Since 1 June cooling degree days 674 539  
Growing Degree Days 18 (Base 50)    
Moisture  
Dew Point 59 °F    
Average Humidity 75    
Maximum Humidity 90    
Minimum Humidity 50    
Precipitation  
Precipitation T in 0.09 in 2.28 in (2002)
Month to date precipitation 1.84 2.09  
Year to date precipitation 29.03 18.43  
Snow  
Snow 0.00 in 0.00 in 0.00 in ()
Month to date snowfall T 0.0  
Since 1 June snowfall T 0.0  
Since 1 July snowfall T 0.0  
Snow Depth 0.00 in    
Sea Level Pressure  
Sea Level Pressure 30.08 in    
Wind  
Wind Speed 6 mph ()    
Max Wind Speed 18 mph    
Max Gust Speed 25 mph    
Visibility 10.0 miles    
Events Rain    
T = Trace of Precipitation, MM = Missing Value Source: Averaged Metar Reports

Daily Weather History Graph

Daily Weather History Graph

Search for Another Location

Airport or City:

Astronomy

Aug. 21, 2019 Rise Set
Actual Time 6:38 AM CDT 8:21 PM CDT
Civil Twilight 6:07 AM CDT 8:51 PM CDT
Nautical Twilight 5:30 AM CDT 9:28 PM CDT
Astronomical Twilight 4:50 AM CDT 10:08 PM CDT
Moon 11:28 PM CDT (8/21) 12:25 PM CDT (8/21)
Length of Visible Light 14h 43m
Length of Day
13h 43m
Waning Gibbous, 69% of the Moon is Illuminated
Aug 21
Waning Gibbous
Aug 23
Last Quarter
Aug 30
New
Sep 5
First Quarter
Sep 13
Full

Hourly Weather History & Observations

Time (CDT) Temp. Dew Point Humidity Pressure Visibility Wind Dir Wind Speed Gust Speed Precip Events Conditions
12:56 AM 66.9 °F 63.0 °F 87% 30.08 in 10.0 mi NNE 6.9 mph - N/A   Clear
1:56 AM 66.9 °F 62.1 °F 84% 30.04 in 10.0 mi NNE 15.0 mph - N/A   Clear
2:56 AM 64.9 °F 60.1 °F 84% 30.01 in 10.0 mi NE 12.7 mph - N/A   Clear
3:56 AM 64.0 °F 57.9 °F 80% 30.04 in 10.0 mi NE 5.8 mph - N/A   Clear
4:56 AM 64.0 °F 57.0 °F 78% 30.06 in 10.0 mi NNE 9.2 mph - N/A   Overcast
5:56 AM 63.0 °F 57.9 °F 84% 30.07 in 10.0 mi NNE 8.1 mph - N/A   Overcast
6:56 AM 63.0 °F 57.0 °F 81% 30.10 in 10.0 mi NE 5.8 mph - N/A   Overcast
7:56 AM 63.0 °F 59.0 °F 87% 30.12 in 10.0 mi North 4.6 mph - 0.00 in Rain Light Rain
8:56 AM 63.0 °F 57.0 °F 81% 30.10 in 10.0 mi North 4.6 mph - 0.00 in   Overcast
9:56 AM 64.9 °F 57.9 °F 78% 30.10 in 10.0 mi North 6.9 mph - N/A   Overcast
10:56 AM 66.9 °F 59.0 °F 76% 30.09 in 10.0 mi NE 5.8 mph - N/A   Overcast
11:56 AM 68.0 °F 60.1 °F 76% 30.11 in 10.0 mi East 5.8 mph - N/A   Overcast
12:56 PM 70.0 °F 61.0 °F 73% 30.13 in 10.0 mi ENE 4.6 mph - 0.00 in   Mostly Cloudy
1:56 PM 71.1 °F 60.1 °F 68% 30.12 in 10.0 mi NE 4.6 mph - N/A   Mostly Cloudy
2:56 PM 73.9 °F 59.0 °F 59% 30.10 in 10.0 mi Calm Calm - N/A   Mostly Cloudy
3:56 PM 75.9 °F 55.9 °F 50% 30.09 in 10.0 mi Calm Calm - N/A   Mostly Cloudy
4:56 PM 75.9 °F 59.0 °F 56% 30.08 in 10.0 mi ENE 4.6 mph - N/A   Mostly Cloudy
5:56 PM 77.0 °F 57.9 °F 52% 30.06 in 10.0 mi NNE 5.8 mph - N/A   Partly Cloudy
6:56 PM 73.9 °F 60.1 °F 62% 30.04 in 10.0 mi NE 5.8 mph - N/A   Partly Cloudy
7:56 PM 70.0 °F 57.0 °F 63% 30.04 in 10.0 mi NE 4.6 mph - N/A   Clear
8:56 PM 66.0 °F 57.0 °F 73% 30.06 in 10.0 mi Calm Calm - N/A   Partly Cloudy
9:56 PM 64.0 °F 57.9 °F 80% 30.08 in 10.0 mi Calm Calm - N/A   Clear
10:56 PM 62.1 °F 57.9 °F 86% 30.07 in 10.0 mi Calm Calm - N/A   Clear
11:56 PM 61.0 °F 57.9 °F 90% 30.08 in 10.0 mi Calm Calm - N/A   Clear